HELLAS-SAT 2

Last updated on Thu Nov 21 2024 00:02:40 GMT+0000 (Coordinated Universal Time)

1 27811U 03020A 24325.07890267 -.00000081 00000+0 00000+0 0 9997 2 27811 5.9159 74.6783 0010010 171.9595 191.3758 1.00271853 37094
UTC large
Height (km)
Speed (km/s)
/
Latitude / Longitude
Inclination (degrees)
Orbital Period (minutes)
Azimuth
Elevation
Range (km)
Doppler Factor

Next 0 passes for location: London (51.5072 / 0.1276)

Sorry there are no passes over London.